Hourly Data Report for March 19, 2019

TORONTO CITY
ONTARIO
Current Station Operator: ECCC - MSC

43°40'00.000" N
79°24'00.000" W
112.50 m
6158355
71508
XTO

Download Data

Hourly Data (March 2019)
Hourly Data Report for March 19, 2019
TIME
LST
Temp Definition
°C
Dew Point Definition
°C
Rel Hum Definition
%
Precip. Amount Definition
mm

Wind Dir Definition
10's deg

Wind Spd Definition
km/h
Visibility Definition
km
Stn Press Definition
kPa
Hmdx Definition


Wind Chill Definition


Weather Definition


00:00 1.0 -7.6 53 0.0 LegendMM LegendMM   101.34     LegendNANA
01:00 0.7 -5.5 63 0.0 LegendMM LegendMM   101.41     LegendNANA
02:00 -0.7 -3.1 84 0.0 LegendMM LegendMM   101.40     LegendNANA
03:00 -1.1 -2.6 90 0.4 LegendMM LegendMM   101.30     LegendNANA
04:00 -1.7 -3.4 88 0.0 LegendMM LegendMM   101.33     LegendNANA
05:00 -2.2 -3.6 90 0.0 LegendMM LegendMM   101.35     LegendNANA
06:00 -1.8 -3.3 90 0.0 LegendMM LegendMM   101.38     LegendNANA
07:00 -1.7 -3.6 87 0.0 LegendMM LegendMM   101.43     LegendNANA
08:00 0.2 -3.0 79 0.0 LegendMM LegendMM   101.46     LegendNANA
09:00 1.2 -3.5 71 0.0 LegendMM LegendMM   101.50     LegendNANA
10:00 2.7 -2.7 67 0.0 LegendMM LegendMM   101.53     LegendNANA
11:00 3.7 -3.3 60 0.0 LegendMM LegendMM   101.53     LegendNANA
12:00 4.6 -3.2 57 0.0 LegendMM LegendMM   101.53     LegendNANA
13:00 4.9 -3.6 54 0.0 LegendMM LegendMM   101.50     LegendNANA
14:00 5.0 -3.3 55 0.0 LegendMM LegendMM   101.42     LegendNANA
15:00 4.6 -4.0 53 0.0 LegendMM LegendMM   101.39     LegendNANA
16:00 5.2 -4.1 51 0.0 LegendMM LegendMM   101.34     LegendNANA
17:00 4.7 -4.3 52 0.0 LegendMM LegendMM   101.30     LegendNANA
18:00 3.8 -2.4 64 0.0 LegendMM LegendMM   101.30     LegendNANA
19:00 2.7 -2.1 70 0.0 LegendMM LegendMM   101.30     LegendNANA
20:00 2.6 -1.8 73 0.0 LegendMM LegendMM   101.31     LegendNANA
21:00 2.8 -2.4 69 0.0 LegendMM LegendMM   101.27     LegendNANA
22:00 2.6 -2.6 68 0.0 LegendMM LegendMM   101.26     LegendNANA
23:00 2.2 -3.3 67 0.0 LegendMM LegendMM   101.25     LegendNANA

Notes on Data Quality.

Legend

  • E = Estimated
  • M = Missing
  • NA = Not Available*
  • [empty] = Indicates an unobserved value
Date modified: